Probability
0 3 3 3 0 3 3 0 0 0 0 0 0 0 0 0 0 0 0 0 0 0 0 6 6 10 3 10 13 10 6 6 3 3 3 0 3 0 0 0 0 0 0
0 0 3 0 0 0 0 0 0 0 0 0 0 0 0 0 0 0 0 0 0 0 0 3 3 6 10 10 10 10 13 3 3 3 3 0 0 0 0 0 0 0 0
0 0 0 0 0 0 0 0 0 0 0 0 0 0 0 0 0 0 0 0 0 0 0 0 6 6 10 10 10 10 6 13 6 0 0 0 0 0 0 0 0 0 0
0 0 0 0 0 0 0 0 0 0 0 0 0 0 0 0 0 0 0 0 0 0 0 0 0 3 6 3 3 6 10 10 6 0 0 0 0 0 0 0 0 0 0
0 0 0 0 0 0 0 0 0 0 0 0 0 0 0 0 0 0 0 0 0 0 0 0 0 0 0 0 0 3 6 10 3 3 0 0 0 0 0 0 0 0 0
0 0 0 0 0 0 0 0 0 0 0 0 0 0 0 0 0 0 0 0 0 0 0 0 0 0 0 0 0 0 0 3 3 0 0 0 0 0 0 0 0 0 0
0 0 0 0 0 0 0 0 0 0 0 0 0 0 0 0 0 0 0 0 0 0 0 0 0 0 0 0 0 0 0 3 3 0 0 0 3 0 0 0 0 0 0
0 0 0 0 0 0 0 0 0 0 0 0 0 0 0 0 0 0 0 0 0 0 0 0 0 0 0 0 0 0 0 0 3 0 0 0 0 3 3 3 3 0 0
0 0 0 0 0 0 0 0 0 0 0 0 0 0 0 0 0 0 0 0 0 0 0 0 0 0 0 0 0 0 0 0 0 0 0 0 0 3 0 0 3 6 3
0 0 0 0 0 0 0 0 0 0 0 0 0 0 0 0 0 0 0 0 0 0 0 0 0 0 0 0 0 0 0 0 0 0 3 0 0 0 3 0 0 0 0
0 0 0 0 0 0 0 0 0 0 0 0 0 0 0 0 0 0 0 0 0 0 0 0 0 0 0 0 0 0 0 0 0 0 0 0 0 0 0 0 0 0 0
0 0 0 0 0 0 0 0 0 0 0 0 0 0 0 0 0 0 0 0 0 0 0 0 0 0 0 0 0 0 0 0 0 0 0 0 0 0 0 0 0 0 0
0 0 0 0 0 0 0 0 0 0 0 0 0 0 0 0 0 0 0 0 0 0 0 0 0 0 0 0 0 0 0 0 0 0 0 0 0 0 0 0 0 0 0
0 0 0 0 0 0 0 0 0 0 0 0 0 0 0 0 0 0 0 0 0 0 0 0 0 0 0 0 0 0 0 0 0 0 0 0 0 0 0 0 0 0 0
0 0 0 0 0 0 0 0 0 0 0 0 0 0 0 0 0 0 0 0 0 0 0 0 0 0 0 0 0 0 0 0 0 0 0 0 0 0 0 0 0 0 0
0 0 0 0 0 0 0 0 0 0 0 0 0 0 0 0 0 0 0 0 0 0 0 0 0 0 0 0 0 0 0 0 0 0 0 0 0 0 0 0 0 0 0
0 0 0 0 0 0 0 0 0 0 0 0 0 0 0 0 0 0 0 0 0 0 0 0 0 0 0 0 0 0 0 0 0 0 0 0 0 0 0 0 0 0 0
0 0 0 0 0 0 0 0 0 0 0 0 0 0 0 0 0 0 0 0 0 0 0 0 0 0 0 0 0 0 0 0 0 0 0 0 0 0 0 0 0 0 0
0 0 0 0 0 0 0 0 0 0 0 0 0 0 0 0 0 0 0 0 0 0 0 0 0 0 0 0 0 0 0 0 0 0 0 0 0 0 0 0 0 0 0
0 0 0 0 0 0 0 0 0 0 0 0 0 0 0 0 0 0 0 0 0 0 0 0 0 0 0 0 0 0 0 0 0 0 0 0 0 0 0 0 0 0 0
0 0 0 0 0 0 0 0 0 0 0 0 0 0 0 0 0 0 0 0 0 0 0 0 0 0 0 0 0 0 0 0 0 0 0 0 0 0 0 0 0 0 0
0 0 0 0 0 0 0 0 0 0 0 0 0 0 0 0 0 0 0 0 0 0 0 0 0 0 0 0 0 0 0 0 0 0 0 0 0 0 0 0 0 0 0
0 0 0 0 0 0 0 0 0 0 0 0 0 0 0 0 0 0 0 0 0 0 0 0 0 0 0 0 0 0 0 0 0 0 0 0 0 0 0 0 0 0 0
0 0 0 0 0 0 0 0 0 0 0 0 0 0 0 0 0 0 0 0 0 0 0 0 0 0 0 0 0 0 0 0 0 0 0 0 0 0 0 0 0 0 0
0 0 0 0 0 0 0 0 0 0 0 0 0 0 0 0 0 0 0 0 0 0 0 0 0 0 0 0 0 0 0 0 0 0 0 0 0 0 0 0 0 0 0
0 0 0 0 0 0 0 0 0 0 0 0 0 0 0 0 0 0 0 0 0 0 0 0 0 0 0 0 0 0 0 0 0 0 0 0 0 0 0 0 0 0 0
Height
5810 5810 5811 5812 5812 5812 5812 5812 5812 5812 5812 5812 5811 5811 5811 5810 5810 5810 5810 5810 5809 5809 5809 5809 5809 5809 5808 5808 5808 5808 5809 5809 5809 5809 5809 5809 5809 5808 5808 5808 5808 5807 5807
5804 5804 5804 5805 5805 5805 5805 5805 5805 5805 5804 5804 5804 5803 5803 5802 5802 5802 5801 5801 5801 5801 5800 5800 5800 5800 5800 5800 5800 5800 5800 5800 5800 5800 5800 5800 5800 5800 5800 5800 5800 5799 5799
5797 5797 5798 5798 5798 5798 5798 5797 5797 5797 5797 5796 5796 5795 5794 5794 5793 5793 5792 5792 5792 5791 5791 5791 5791 5791 5791 5791 5791 5791 5791 5791 5791 5791 5791 5791 5791 5791 5791 5791 5791 5791 5791
5790 5790 5790 5791 5791 5790 5790 5790 5789 5789 5788 5788 5787 5786 5785 5785 5784 5784 5783 5783 5782 5782 5781 5781 5781 5781 5781 5781 5781 5781 5781 5781 5781 5781 5781 5782 5781 5782 5782 5782 5782 5781 5781
5783 5783 5783 5783 5783 5783 5782 5782 5781 5781 5780 5779 5778 5777 5776 5775 5775 5774 5773 5773 5772 5772 5771 5771 5771 5771 5771 5771 5771 5771 5771 5771 5771 5771 5771 5772 5772 5772 5772 5772 5772 5772 5772
5775 5775 5775 5775 5775 5775 5774 5773 5773 5772 5771 5770 5769 5768 5767 5766 5765 5764 5764 5763 5762 5761 5761 5761 5761 5761 5761 5760 5760 5760 5760 5761 5761 5761 5761 5762 5762 5762 5762 5762 5762 5762 5761
5767 5767 5767 5767 5767 5766 5766 5765 5764 5763 5762 5760 5759 5759 5758 5757 5756 5754 5753 5752 5752 5751 5750 5750 5750 5750 5750 5750 5750 5750 5750 5750 5750 5750 5750 5751 5751 5751 5751 5751 5751 5751 5751
5759 5759 5759 5758 5758 5758 5757 5756 5755 5754 5752 5751 5750 5749 5749 5748 5746 5745 5743 5742 5741 5740 5739 5739 5739 5738 5738 5738 5738 5738 5738 5738 5739 5739 5739 5739 5740 5740 5740 5740 5740 5740 5741
5750 5750 5750 5750 5749 5749 5748 5747 5746 5745 5743 5742 5740 5739 5738 5738 5737 5736 5733 5732 5730 5729 5728 5727 5727 5727 5726 5726 5726 5726 5726 5726 5727 5727 5727 5728 5728 5729 5729 5728 5729 5729 5729
5741 5741 5741 5740 5740 5739 5738 5737 5736 5735 5734 5732 5730 5729 5728 5726 5726 5726 5724 5721 5719 5718 5717 5716 5715 5715 5715 5714 5714 5714 5714 5714 5714 5715 5715 5716 5716 5717 5717 5717 5717 5717 5717
5732 5732 5732 5731 5731 5730 5729 5728 5726 5725 5724 5722 5721 5719 5717 5715 5714 5713 5713 5711 5709 5707 5706 5705 5704 5704 5703 5702 5702 5702 5702 5702 5702 5703 5703 5704 5704 5705 5705 5705 5705 5705 5705
5723 5722 5722 5721 5720 5720 5719 5717 5716 5715 5713 5712 5710 5708 5707 5705 5703 5702 5701 5700 5699 5697 5695 5694 5693 5692 5691 5691 5690 5690 5689 5690 5690 5690 5691 5691 5692 5692 5691 5692 5692 5692 5692
5713 5712 5712 5711 5710 5709 5708 5707 5706 5705 5703 5701 5699 5698 5696 5694 5692 5691 5689 5689 5688 5687 5685 5683 5681 5680 5679 5678 5678 5677 5677 5677 5677 5678 5678 5678 5678 5679 5678 5678 5679 5679 5679
5703 5702 5701 5700 5699 5698 5697 5696 5695 5694 5692 5691 5689 5687 5685 5683 5681 5680 5678 5677 5676 5676 5674 5672 5670 5669 5667 5666 5666 5665 5665 5665 5665 5665 5665 5665 5665 5665 5665 5665 5665 5665 5665
5693 5692 5690 5689 5688 5687 5686 5685 5684 5683 5682 5680 5678 5677 5675 5673 5671 5669 5667 5665 5664 5663 5664 5661 5659 5657 5655 5654 5653 5652 5652 5652 5651 5651 5651 5651 5651 5651 5651 5651 5651 5651 5651
5683 5682 5680 5679 5678 5677 5676 5675 5674 5672 5671 5669 5668 5666 5664 5661 5659 5657 5656 5653 5651 5650 5651 5650 5647 5645 5643 5642 5641 5640 5639 5638 5638 5637 5637 5636 5636 5636 5636 5636 5636 5637 5637
5672 5671 5669 5668 5667 5666 5665 5664 5663 5661 5660 5658 5656 5654 5652 5650 5648 5646 5644 5642 5640 5638 5638 5637 5635 5633 5630 5629 5628 5626 5625 5624 5623 5622 5622 5621 5621 5621 5621 5621 5621 5621 5621
5661 5660 5659 5657 5656 5655 5654 5653 5652 5650 5648 5647 5645 5643 5641 5639 5637 5634 5632 5630 5628 5626 5625 5625 5623 5620 5618 5616 5614 5613 5611 5610 5609 5608 5607 5606 5605 5605 5605 5605 5605 5606 5606
5650 5649 5647 5646 5645 5644 5643 5641 5640 5638 5637 5635 5633 5631 5629 5626 5624 5622 5620 5618 5616 5614 5612 5611 5610 5608 5605 5603 5601 5599 5597 5595 5594 5592 5591 5590 5590 5589 5589 5589 5589 5590 5590
5639 5637 5636 5635 5633 5632 5631 5629 5628 5626 5624 5622 5620 5618 5616 5614 5612 5610 5608 5605 5603 5601 5599 5597 5596 5594 5592 5589 5587 5585 5583 5581 5579 5577 5575 5574 5574 5573 5573 5573 5574 5574 5574
5627 5626 5624 5623 5621 5620 5619 5617 5615 5614 5612 5610 5607 5605 5603 5601 5598 5596 5594 5592 5590 5588 5586 5584 5582 5581 5579 5576 5573 5571 5569 5567 5565 5563 5561 5559 5558 5558 5557 5557 5557 5557 5558
5616 5614 5613 5611 5610 5608 5606 5604 5603 5601 5599 5596 5594 5592 5589 5587 5585 5583 5580 5578 5576 5574 5572 5570 5568 5566 5564 5562 5559 5556 5554 5552 5551 5549 5546 5544 5543 5542 5541 5541 5541 5541 5542
5604 5602 5601 5599 5598 5596 5594 5592 5589 5588 5585 5583 5581 5578 5576 5573 5571 5569 5567 5564 5562 5559 5558 5556 5554 5551 5549 5547 5545 5542 5540 5537 5536 5533 5532 5531 5528 5527 5526 5525 5524 5525 5525
5593 5591 5589 5587 5585 5583 5581 5579 5577 5575 5572 5570 5567 5565 5563 5560 5558 5556 5554 5551 5548 5546 5543 5541 5539 5537 5534 5532 5530 5527 5525 5523 5521 5518 5516 5515 5514 5512 5510 5509 5508 5509 5509
5581 5579 5577 5575 5573 5571 5569 5567 5565 5563 5560 5557 5555 5552 5550 5547 5545 5543 5541 5538 5536 5533 5529 5527 5525 5522 5519 5517 5514 5512 5510 5508 5507 5504 5501 5500 5499 5497 5496 5495 5493 5493 5494
5569 5567 5565 5563 5562 5560 5557 5555 5553 5551 5549 5546 5544 5541 5538 5535 5532 5529 5527 5525 5522 5520 5517 5514 5511 5509 5506 5503 5500 5498 5495 5493 5491 5490 5488 5486 5484 5483 5484 5483 5481 5479 5479
Wind_Speed
26 27 28 29 29 30 30 30 30 31 31 32 32 32 33 33 34 34 34 34 35 35 35 36 36 36 36 36 37 37 37 36 36 36 36 36 35 35 35 35 35 34 33
27 28 29 30 30 31 31 31 31 32 33 33 33 34 34 35 35 36 36 36 36 37 38 37 37 37 38 38 38 39 39 38 38 38 38 38 38 37 37 37 36 36 35
29 30 31 31 31 31 32 32 33 33 34 34 35 35 36 37 37 37 38 38 38 39 39 39 39 39 39 39 39 40 40 40 40 40 40 39 40 40 39 38 39 38 37
30 31 32 32 32 32 33 33 33 34 35 35 36 37 37 38 38 38 39 39 40 40 41 41 41 41 41 41 41 41 41 41 42 42 41 41 41 41 41 40 40 40 39
32 32 32 33 33 33 34 34 35 36 36 37 38 37 38 38 39 39 39 40 40 41 42 42 42 43 43 43 42 43 43 43 43 43 43 43 43 43 42 41 41 41 41
33 33 34 34 33 34 35 35 36 37 37 38 38 37 38 38 39 39 40 41 41 42 42 43 43 44 44 44 44 44 43 43 44 44 44 44 43 43 43 43 43 42 42
34 34 34 34 35 35 36 36 37 37 38 38 38 38 39 39 40 40 41 41 42 43 44 44 45 45 45 45 45 45 45 44 44 44 45 45 44 44 44 44 44 44 44
35 35 34 34 35 36 36 37 37 38 38 39 39 40 40 40 41 41 41 42 42 43 45 46 46 46 47 47 47 47 47 46 45 45 45 45 46 45 45 45 45 45 45
36 36 36 36 36 36 37 38 38 39 39 40 40 41 41 41 41 42 43 44 44 45 45 46 47 47 47 47 47 46 46 46 47 46 46 46 46 46 45 46 46 46 46
36 38 37 37 37 38 39 39 39 40 40 40 41 42 42 42 42 42 43 44 44 44 44 44 44 46 46 46 46 46 47 47 47 47 46 46 46 46 46 47 47 47 46
37 38 39 40 39 39 39 40 41 41 41 41 41 41 42 42 43 43 42 42 43 43 44 44 44 45 45 46 47 47 47 47 47 46 47 47 47 48 48 49 49 48 48
39 40 40 40 40 41 41 42 42 42 42 42 42 41 42 42 42 42 42 42 42 42 43 44 44 44 44 45 46 46 46 46 47 47 48 48 49 49 49 50 49 49 49
40 41 42 42 43 43 43 42 42 42 41 41 41 41 42 42 42 42 42 42 41 42 43 43 43 44 44 45 45 45 45 46 47 47 48 48 49 50 50 51 51 51 51
42 42 43 43 43 44 43 42 42 41 41 41 41 41 41 42 42 42 42 42 41 41 42 42 43 44 44 44 45 45 45 46 47 48 48 48 49 51 52 52 52 52 53
44 45 45 44 43 43 43 43 42 42 42 41 41 41 42 42 42 42 42 42 42 42 41 42 43 44 44 45 45 46 46 47 48 49 50 50 51 52 52 52 52 52 52
44 44 44 44 43 42 42 42 42 42 41 41 41 41 42 42 43 43 43 43 43 43 42 42 43 44 45 45 46 47 48 48 49 50 51 52 52 52 52 52 52 52 51
43 43 42 42 42 43 42 42 42 42 41 41 41 41 42 42 43 43 43 43 44 44 43 42 43 44 45 46 47 48 48 49 50 51 52 53 53 53 53 53 53 53 52
43 42 42 43 43 43 43 43 43 43 43 42 43 43 44 44 44 44 44 44 44 45 45 44 44 45 46 47 48 49 50 50 51 52 52 52 52 53 53 54 54 54 53
44 44 43 43 43 43 43 44 44 44 44 44 45 45 45 45 45 45 45 46 46 46 46 46 46 46 47 48 48 49 50 51 51 52 52 52 52 52 53 53 53 53 53
43 43 43 43 43 43 44 44 44 44 45 46 46 46 46 45 45 45 45 46 47 47 47 47 46 46 47 48 48 49 49 50 51 51 51 51 52 52 52 53 53 52 53
42 42 42 42 42 42 43 43 44 44 45 46 46 46 46 46 46 46 46 46 47 47 46 47 47 46 47 48 48 49 49 50 50 50 50 51 51 51 51 52 52 52 52
41 41 41 41 41 42 43 43 44 45 46 46 46 46 45 46 46 46 46 46 47 47 47 47 47 48 48 48 48 48 49 48 48 49 49 50 51 50 50 50 50 51 51
40 40 40 41 41 42 43 43 44 44 44 44 44 45 45 45 45 45 45 46 46 47 48 48 48 48 48 48 48 48 48 47 47 47 48 48 49 49 50 50 51 51 51
40 40 41 41 42 43 43 43 43 43 43 44 44 44 44 44 44 44 45 45 46 47 47 47 47 48 48 49 48 48 47 47 47 48 48 47 47 48 49 49 49 50 50
40 40 41 42 42 42 43 42 42 42 42 42 42 43 43 43 44 45 45 45 45 46 46 47 47 47 48 48 48 47 47 47 46 46 46 45 45 45 45 45 47 48 49
39 40 40 40 41 41 41 41 41 41 40 40 41 42 42 43 43 44 44 44 44 44 45 45 46 47 47 47 46 46 46 46 45 44 43 43 43 43 41 41 43 44 45
Wind_Direction
265 266 268 269 271 273 275 277 277 278 278 278 278 278 278 278 277 276 276 276 275 274 274 275 275 275 275 274 274 274 274 274 275 276 276 277 278 278 277 278 279 279 278
266 267 269 270 272 273 275 276 277 278 279 279 279 278 278 278 277 277 276 275 275 274 274 274 274 275 275 275 275 274 274 274 274 275 276 276 276 277 277 277 278 279 279
268 269 270 272 273 275 276 277 278 278 279 279 279 279 279 279 278 277 276 276 275 274 274 273 273 274 275 275 275 274 274 274 274 273 274 276 276 276 277 277 277 277 278
269 269 270 272 274 275 277 278 278 278 279 280 280 279 279 278 278 278 277 276 275 274 273 272 272 273 274 274 275 274 273 272 273 273 273 274 276 276 276 276 276 276 276
269 269 271 273 274 275 276 277 278 278 280 280 280 279 279 278 279 278 278 278 276 275 273 272 273 274 273 273 274 274 273 272 272 272 273 274 274 275 276 276 277 276 275
270 270 271 273 274 275 276 277 278 279 280 280 279 278 279 279 279 279 279 277 276 275 274 272 272 273 273 273 273 273 273 272 271 271 272 273 274 275 276 278 278 277 277
271 272 271 273 274 276 277 277 278 280 281 280 278 278 279 279 280 279 280 279 277 275 274 274 273 273 273 273 273 272 272 272 271 271 272 273 274 275 275 276 276 277 278
270 272 271 273 275 277 277 278 279 281 281 280 279 279 278 279 280 280 280 280 278 277 276 275 274 273 272 272 272 272 272 271 270 271 271 272 273 273 274 275 276 276 277
270 271 273 274 275 276 278 279 280 281 281 281 280 280 279 278 279 280 281 281 279 278 277 275 273 273 273 272 272 272 271 270 270 270 271 270 271 272 272 273 274 274 275
271 273 274 275 276 276 277 279 280 281 281 281 281 281 281 280 280 281 281 281 280 279 277 275 274 273 273 272 272 272 271 270 271 270 270 270 270 270 271 273 273 273 274
272 274 274 275 276 277 278 280 281 281 281 282 282 283 283 282 282 282 282 282 281 280 277 276 276 275 274 273 272 272 271 270 270 270 269 269 270 270 270 271 272 272 272
272 274 275 275 275 277 278 280 281 281 281 281 282 283 283 283 284 284 283 281 281 279 278 277 276 276 276 275 274 273 272 270 270 270 269 269 269 269 270 270 270 271 271
273 273 276 277 276 276 277 279 280 280 280 281 282 283 284 284 285 284 283 282 281 280 278 277 277 277 277 277 275 273 272 271 270 271 271 271 270 269 269 271 270 270 271
272 274 276 277 277 276 276 277 278 278 279 280 281 282 284 284 284 284 283 283 282 280 279 278 278 277 277 277 276 274 273 273 272 272 272 272 271 270 270 270 271 271 271
275 275 276 277 277 278 277 277 277 277 278 280 281 282 283 284 284 284 284 284 283 282 280 279 278 278 277 276 276 275 274 273 272 272 272 272 272 272 271 271 271 272 272
278 278 278 277 277 278 278 277 278 278 278 280 281 283 284 285 285 285 285 284 284 283 282 281 280 279 278 277 277 276 275 274 274 273 272 273 273 273 272 271 271 271 272
279 279 279 278 278 279 279 278 279 278 279 280 281 283 284 285 285 285 285 284 284 283 283 282 281 280 279 278 278 278 277 276 276 275 274 273 272 272 272 271 271 270 271
280 280 280 279 278 278 277 278 279 279 280 280 282 283 284 284 284 284 284 284 284 283 283 282 281 281 280 280 280 279 279 278 276 276 275 274 273 272 272 271 271 270 271
279 281 280 279 278 277 277 278 279 279 280 282 283 283 284 285 285 284 284 284 284 284 283 283 282 281 281 281 281 281 280 279 278 277 276 275 274 273 272 271 270 270 270
279 279 279 278 278 277 278 278 279 280 281 282 282 283 284 285 285 285 285 285 284 284 283 283 283 282 282 282 282 282 282 281 279 278 277 276 275 274 273 272 271 270 271
278 278 277 277 278 278 279 280 280 280 281 282 283 283 284 284 284 285 285 285 284 284 283 283 283 283 284 284 283 283 283 282 280 279 278 278 277 276 275 274 272 271 271
278 278 278 278 278 279 280 281 282 282 282 283 283 283 284 284 284 284 285 284 284 283 283 283 283 284 284 284 285 285 284 283 281 281 280 278 277 276 276 275 274 273 272
279 278 278 279 280 281 282 282 283 283 283 283 283 283 283 284 284 284 284 284 284 284 284 285 284 284 285 285 285 286 285 284 283 282 281 279 277 277 276 276 275 273 272
280 280 279 280 281 281 282 282 283 284 284 284 284 284 285 285 285 285 285 284 285 285 286 285 286 286 286 286 286 286 285 284 284 283 281 280 278 277 276 276 274 273 273
281 281 281 281 282 282 282 284 285 285 285 286 286 286 286 286 285 285 285 285 285 286 286 287 287 287 287 287 286 286 286 285 284 284 283 281 280 278 277 276 275 274 273
282 282 281 281 282 282 283 284 285 285 287 287 288 288 288 288 287 287 287 286 286 286 287 287 287 288 288 287 287 286 286 286 285 284 284 282 281 280 278 276 276 275 274